Preview of NWS' New Version of Forecast
This preview is not operational and should not be used for support decisions.

Regional Weather Roundup (RWR)

Issued by National Weather Service (NWS)

                            
000
ASUS45 KBOU 180410
RWRCO 

WEATHER ROUNDUP FOR COLORADO
NATIONAL WEATHER SERVICE DENVER/BOULDER CO
900 PM MST SUN FEB 17 2019

NOTE: "FAIR" INDICATES FEW OR NO CLOUDS BELOW 12000 FEET WITH NO
SIGNIFICANT WEATHER AND/OR OBSTRUCTIONS TO VISIBILITY.

COZ001>005-013-030-031-180500-
...NORTHWEST COLORADO...
  
CITY           SKY/WX    TMP DP  RH WIND       PRES   REMARKS
CRAIG          FAIR       9   4  80 CALM      29.84S                  
HAYDEN         FAIR      15   4  61 E7        29.83F WCI   5          
MEEKER         FAIR      18   7  62 CALM      29.80S                  
RANGELY        FAIR      24  10  56 E15G21    29.82S WCI  11          
RABBIT EARS PA CLOUDY     5   3  92 SE5       29.72S WCI  -4          
STEAMBOAT SPGS FAIR      10   4  75 CALM      29.83R                  
WALDEN         FAIR      -2  -8  78 SE6       29.82S WCI -14          
$$

COZ006>008-011-180500-
...WEST CENTRAL VALLEYS...
  
CITY           SKY/WX    TMP DP  RH WIND       PRES   REMARKS
GRAND JUNCTION CLOUDY    32  23  69 E5        29.79S WCI  27          
MONTROSE       MOCLDY    28  12  51 E8        29.82S WCI  20          
EAGLE          CLOUDY    19   9  65 CALM      29.84R                  
RIFLE          CLOUDY    24  12  60 SE5       29.81R WCI  18          
DELTA          CLOUDY    33  19  57 NE7       29.81F WCI  27          
NUCLA          FLURRIES  28  27  93 CALM      29.83S                  
$$

COZ017>023-064>068-180500-
...SOUTHWEST COLORADO...
  
CITY           SKY/WX    TMP DP  RH WIND       PRES   REMARKS
DURANGO        LGT SNOW  22  22 100 E6        29.82S FOG     WCI  14  
CORTEZ         CLOUDY    24  20  84 NE5       29.83R WCI  18          
PAGOSA SPRINGS LGT SNOW  21  21 100 E5        29.82S WCI  15          
TELLURIDE      MOCLDY    18   7  62 E3        29.75R                  
WOLF CREEK PAS CLOUDY     3   1  92 S9G17     29.74F WCI -11          
$$

COZ009-010-012-014-032>034-037-058>063-180500-
...CENTRAL COLORADO...
  
CITY           SKY/WX    TMP DP  RH WIND       PRES   REMARKS
ASPEN          FAIR      15   2  56 SW9       29.76S WCI   3          
BUENA VISTA    CLOUDY    17   5  57 CALM      29.83R                  
COPPER MTN     MOCLDY     7  -6  56 SE16      29.67F WCI -11          
BERTHOUD PASS  MOCLDY    -4 -15  59 SE18      29.67S WCI -26          
COTTONWOOD PAS CLOUDY    14   0  52 CALM      29.77R                  
GUNNISON       CLOUDY     4  -1  80 CALM      29.83S                  
GRANBY         CLOUDY     7  -1  69 CALM      29.82R                  
KREMMLING      MOCLDY     5   1  85 CALM      29.86R                  
LEADVILLE      CLOUDY     5  -5  63 E3        29.74R                  
MONARCH PASS   CLOUDY     3  -4  72 E14       29.80S WCI -15          
SALIDA         FAIR      25   7  47 SE17G23   29.90S WCI  11          
SUNLIGHT       CLOUDY     5   1  85 MISG      29.75S                  
WILKERSON PASS LGT SNOW   5   1  85 S6        29.77S WCI  -6          
$$

COZ069>075-180500-
...SAN LUIS VALLEY/SANGRE DE CRISTO MOUNTAINS...
  
CITY           SKY/WX    TMP DP  RH WIND       PRES   REMARKS
ALAMOSA        CLOUDY    17  15  92 CALM      29.82S                  
DEL NORTE      CLOUDY    16  11  82 SW8       29.82S WCI   5          
LA VETA PASS   NOT AVBL                                               
SAGUACHE       CLOUDY    18   5  57 CALM      29.82S                  
$$

COZ035-036-038>040-180500-
...NORTHERN COLORADO FRONT RANGE...
  
CITY           SKY/WX    TMP DP  RH WIND       PRES   REMARKS
DENVER INTL AP CLOUDY    17   7  64 NE13      30.02R WCI   4          
AURORA         FLURRIES  16  10  75 NE9       30.01R WCI   4          
FRONT RANGE AP CLOUDY    19   9  63 NE12      30.02S WCI   7          
ERIE MUNI ARPT FAIR      20  12  72 N7        30.11R WCI  11          
BOULDER MUN AP LGT SNOW  19  16  86 NW3       30.04R                  
CENTENNIAL     LGT SNOW  17  12  80 NE12      29.99R FOG     WCI   4  
BROOMFIELD     LGT SNOW  18  12  79 N7        30.02R WCI   8          
FORT COLLINS   FLURRIES  17  12  80 E6        30.07R WCI   9          
LONGMONT       CLOUDY    21  12  67 NE5       30.08R WCI  15          
$$

COZ041-046-047-076>085-087-088-180500-
...PIKES PEAK/PALMER DIVIDE AND SOUTHERN FOOTHILLS...
  
CITY           SKY/WX    TMP DP  RH WIND       PRES   REMARKS
COLO. SPRINGS  MOCLDY    20  14  77 E6        29.95R WCI  12          
A. F. ACADEMY  FLURRIES  21  15  77 NE6       29.92R WCI  13          
SCHRIEVER AFB  NOT AVBL                                               
CHEYENNE MTN   SNOWSHWR  18  16  93 E3        29.87R                  
ELLICOTT       NOT AVBL                                               
FALCON         MOCLDY    16  12  82 NE12      29.93R WCI   3          
FORT CARSON    MIX PCPN  23  14  68 NE7       29.95R WCI  15          
LIMON          FAIR      13   6  74 N16       29.99R WCI  -3          
MONUMENT HILL  FLURRIES  14   9  79 NE10      29.94R WCI   1          
CANON CITY     NOT AVBL                                               
WALSENBURG     NOT AVBL                                               
TRINIDAD       FAIR      30  17  58 S16       29.86R WCI  19          
$$

COZ042>045-048>051-090-091-180500-
...NORTHEAST COLORADO...
  
CITY           SKY/WX    TMP DP  RH WIND       PRES   REMARKS
GREELEY ARPT   FAIR      17   5  59 E10       30.09  WCI   5          
AKRON          FAIR       6   1  80 NE8       30.08R WCI  -7          
BURLINGTON     MOCLDY    11   3  70 NE10      30.10R WCI  -3          
WRAY           FAIR      10   3  72 N8        30.17R WCI  -1          
YUMA           FAIR       7   1  78 N8        30.13R WCI  -6          
STERLING       FAIR       9   3  78 NE7       30.13R WCI  -3          
HOLYOKE        FAIR       7   0  72 N10       30.17R WCI  -8          
FORT MORGAN      N/A     11   1  65 E8        30.11R WCI  -1          
$$

COZ086-089-092>099-180500-
...SOUTHEAST COLORADO...
  
CITY           SKY/WX    TMP DP  RH WIND       PRES   REMARKS
PUEBLO         CLOUDY    28  12  51 E15       30.01R WCI  16          
LA JUNTA       MOCLDY    24  14  65 E18G31    30.03R WCI  10          
LAMAR          FAIR      19   8  62 E15G23    30.07R WCI   5          
SPRINGFIELD      N/A     18  13  80 E13       30.03R WCI   5          
$$